Location: Greenwich
(51.4790°N, 0.0090°E)
Time: 18:00:50
(UTC+01:00)

X-37B - Pass Details

Date: 22 September 2021
Orbit: 385 x 389 km, 45.0° (Epoch: 13 October)

Event Time Altitude Azimuth Distance (km) Brightness Sun altitude
Exits shadow 05:55:29 - 209° (SSW) 1,986 3.8 -8.7°
Reaches altitude 10° 05:57:35 10° 185° (S) 1,411 3.3 -8.4°
Maximum altitude 05:59:07 13° 156° (SSE) 1,253 3.3 -8.1°
Drops below altitude 10° 06:00:39 10° 127° (SE) 1,415 4.1 -7.9°
Sets 06:03:34 0° 98° (E) 2,274 6.2 -7.4°
